TimePST,TemperatureF,Dew PointF,Humidity,Sea Level PressureIn,VisibilityMPH,Wind Direction,Wind SpeedMPH,Gust SpeedMPH,PrecipitationIn,Events,Conditions,WindDirDegrees,DateUTC
12:53 AM,32.0,30.0,92,30.21,10.0,Calm,Calm,-,N/A,,Clear,0,2013-01-03 08:53:00
1:53 AM,34.0,32.0,92,30.21,10.0,Calm,Calm,-,N/A,,Clear,0,2013-01-03 09:53:00
2:53 AM,30.0,28.0,92,30.22,10.0,Calm,Calm,-,N/A,,Clear,0,2013-01-03 10:53:00
3:53 AM,30.0,28.9,96,30.19,10.0,Calm,Calm,-,N/A,,Clear,0,2013-01-03 11:53:00
4:53 AM,27.0,26.1,96,30.17,10.0,Calm,Calm,-,N/A,,Clear,0,2013-01-03 12:53:00
5:53 AM,26.1,26.1,100,30.16,10.0,Calm,Calm,-,N/A,,Clear,0,2013-01-03 13:53:00
6:53 AM,27.0,25.0,92,30.15,10.0,Calm,Calm,-,N/A,,Clear,0,2013-01-03 14:53:00
7:19 AM,28.4,26.6,93,30.14,10.0,Calm,Calm,-,N/A,,Partly Cloudy,0,2013-01-03 15:19:00
7:53 AM,28.0,26.1,92,30.14,10.0,Calm,Calm,-,N/A,,Clear,0,2013-01-03 15:53:00
8:53 AM,30.0,28.9,96,30.14,10.0,Calm,Calm,-,N/A,,Clear,0,2013-01-03 16:53:00
9:53 AM,36.0,33.1,89,30.15,10.0,NNE,3.5,-,N/A,,Clear,20,2013-01-03 17:53:00
10:53 AM,39.9,28.9,65,30.15,10.0,ENE,3.5,-,N/A,,Clear,70,2013-01-03 18:53:00
11:53 AM,41.0,27.0,57,30.14,10.0,ESE,4.6,-,N/A,,Clear,120,2013-01-03 19:53:00
12:53 PM,42.1,25.0,51,30.12,10.0,ENE,4.6,-,N/A,,Clear,60,2013-01-03 20:53:00
1:53 PM,43.0,26.1,51,30.11,10.0,ENE,4.6,-,N/A,,Clear,70,2013-01-03 21:53:00
2:53 PM,41.0,27.0,57,30.11,10.0,East,4.6,-,N/A,,Clear,80,2013-01-03 22:53:00
3:53 PM,39.9,27.0,60,30.12,10.0,ENE,3.5,-,N/A,,Clear,70,2013-01-03 23:53:00
4:53 PM,39.9,30.0,68,30.12,10.0,NNE,5.8,-,N/A,,Overcast,20,2013-01-04 00:53:00
5:53 PM,41.0,28.9,62,30.10,10.0,ENE,9.2,-,N/A,,Overcast,60,2013-01-04 01:53:00
6:53 PM,41.0,28.9,62,30.12,10.0,East,3.5,-,N/A,,Overcast,80,2013-01-04 02:53:00
7:53 PM,42.1,28.9,60,30.11,10.0,Variable,4.6,-,N/A,,Overcast,0,2013-01-04 03:53:00
8:53 PM,42.1,32.0,67,30.11,10.0,East,8.1,-,N/A,,Overcast,80,2013-01-04 04:53:00
9:21 PM,42.8,33.8,70,30.10,10.0,ESE,9.2,19.6,N/A,,Overcast,120,2013-01-04 05:21:00
9:53 PM,41.0,35.1,79,30.12,10.0,SE,16.1,21.9,N/A,,Overcast,130,2013-01-04 05:53:00
10:20 PM,39.2,33.8,81,30.12,10.0,ESE,15.0,-,N/A,,Overcast,110,2013-01-04 06:20:00
10:53 PM,39.0,35.1,86,30.13,10.0,ESE,8.1,-,N/A,,Overcast,110,2013-01-04 06:53:00
11:30 PM,39.2,35.6,87,30.12,10.0,East,9.2,-,N/A,,Overcast,90,2013-01-04 07:30:00
11:45 PM,39.2,35.6,87,30.13,10.0,ESE,8.1,-,N/A,,Overcast,120,2013-01-04 07:45:00
11:53 PM,41.0,36.0,82,30.14,10.0,ESE,6.9,16.1,N/A,,Overcast,120,2013-01-04 07:53:00